Weather History for Kahului, HI

Change the Weather History Date:

Monday, April 14, 2014

  Actual Average Record
Temperature  
Mean Temperature 76 °F 74 °F  
Max Temperature 82 °F 82 °F 88 °F (2002)
Min Temperature 69 °F 66 °F 57 °F (1951)
Degree Days  
Heating Degree Days 0 0  
Month to date heating degree days 0 0  
Since 1 July heating degree days 0 0  
Cooling Degree Days 11 9  
Month to date cooling degree days 134 126  
Year to date cooling degree days 938 780  
Growing Degree Days 25 (Base 50)    
Moisture  
Dew Point 60 °F    
Average Humidity 56    
Maximum Humidity 70    
Minimum Humidity 42    
Precipitation  
Precipitation 0.00 in 0.05 in 0.68 in (1979)
Month to date precipitation 1.16 0.88  
Year to date precipitation 11.56 8.09  
Snow  
Snow 0.00 in - - ()
Month to date snowfall 0.0  
Since 1 July snowfall 0.0  
Snow Depth 0.00 in    
Sea Level Pressure  
Sea Level Pressure 30.15 in    
Wind  
Wind Speed 14 mph (NE)    
Max Wind Speed 26 mph    
Max Gust Speed 37 mph    
Visibility 10 miles    
Events Rain    
T = Trace of Precipitation, MM = Missing Value Source: NWS Daily Summary

Daily Weather History Graph

Daily Weather History Graph

Search for Another Location

Airport:

Trip Planner

Search our weather history database for the weather conditions in past years. The results will help you decide how hot, cold, wet, or windy it might be!

Date:

Astronomy

Apr. 14, 2014 Rise Set
Actual Time 6:07 AM HST 6:44 PM HST
Civil Twilight 5:45 AM HST 7:07 PM HST
Nautical Twilight 5:18 AM HST 7:33 PM HST
Astronomical Twilight 4:51 AM HST 8:00 PM HST
Moon 6:34 PM HST (4/14) 5:42 AM HST (4/14)
Length of Visible Light 13h 22m
Length of Day
12h 36m
Full, 100% of the Moon is Illuminated
Apr 14
Full
Apr 14
Full
Apr 21
Last Quarter
Apr 28
New
May 6
First Quarter

Hourly Weather History & Observations

Time (HST) Temp. Heat Index Dew Point Humidity Pressure Visibility Wind Dir Wind Speed Gust Speed Precip Events Conditions
12:54 AM 72.0 °F - 55.0 °F 55% 30.18 in 10.0 mi ENE 11.5 mph 21.9 mph N/A   Clear
1:54 AM 71.1 °F - 55.9 °F 59% 30.16 in 10.0 mi NE 12.7 mph - N/A   Clear
2:54 AM 69.1 °F - 57.9 °F 68% 30.13 in 10.0 mi NE 8.1 mph - N/A   Clear
3:54 AM 70.0 °F - 57.9 °F 65% 30.12 in 10.0 mi NE 6.9 mph - N/A   Clear
4:54 AM 69.1 °F - 59.0 °F 70% 30.13 in 10.0 mi NE 8.1 mph - N/A   Clear
5:54 AM 71.1 °F - 59.0 °F 66% 30.14 in 10.0 mi NE 10.4 mph - N/A   Partly Cloudy
6:54 AM 72.0 °F - 57.9 °F 61% 30.16 in 10.0 mi ENE 10.4 mph - N/A   Partly Cloudy
7:54 AM 73.9 °F - 60.1 °F 62% 30.18 in 10.0 mi ENE 15.0 mph 19.6 mph N/A   Partly Cloudy
8:54 AM 75.0 °F - 60.1 °F 60% 30.19 in 10.0 mi NE 11.5 mph 25.3 mph N/A   Scattered Clouds
9:54 AM 79.0 °F - 54.0 °F 42% 30.20 in 10.0 mi ENE 19.6 mph 29.9 mph N/A   Partly Cloudy
10:54 AM 80.1 °F 80.2 °F 55.9 °F 43% 30.18 in 10.0 mi ENE 15.0 mph 28.8 mph N/A   Clear
11:54 AM 80.1 °F 80.1 °F 55.0 °F 42% 30.18 in 10.0 mi ENE 18.4 mph 28.8 mph N/A   Clear
12:54 PM 81.0 °F 81.7 °F 61.0 °F 50% 30.16 in 10.0 mi NE 18.4 mph 27.6 mph N/A   Scattered Clouds
1:54 PM 80.1 °F 81.5 °F 63.0 °F 56% 30.14 in 10.0 mi NE 24.2 mph 29.9 mph N/A   Scattered Clouds
2:54 PM 80.1 °F 81.5 °F 63.0 °F 56% 30.12 in 10.0 mi ENE 15.0 mph 28.8 mph N/A   Scattered Clouds
3:54 PM 80.1 °F 81.5 °F 63.0 °F 56% 30.11 in 10.0 mi NE 21.9 mph - N/A   Scattered Clouds
4:54 PM 78.1 °F - 63.0 °F 60% 30.11 in 10.0 mi NE 17.3 mph 27.6 mph N/A   Mostly Cloudy
5:54 PM 75.0 °F - 63.0 °F 66% 30.12 in 10.0 mi ENE 17.3 mph 25.3 mph 0.00 in   Scattered Clouds
6:54 PM 73.0 °F - 64.9 °F 76% 30.13 in 10.0 mi NE 13.8 mph - 0.00 in Rain Light Rain
7:54 PM 73.0 °F - 63.0 °F 71% 30.14 in 10.0 mi NE 17.3 mph 28.8 mph 0.00 in   Mostly Cloudy
8:54 PM 72.0 °F - 64.0 °F 76% 30.15 in 10.0 mi NE 21.9 mph 27.6 mph 0.01 in   Mostly Cloudy
9:54 PM 73.0 °F - 62.1 °F 68% 30.16 in 10.0 mi NE 23.0 mph 33.4 mph N/A   Mostly Cloudy
10:54 PM 73.0 °F - 63.0 °F 71% 30.15 in 10.0 mi NE 20.7 mph 32.2 mph N/A   Mostly Cloudy
11:14 PM 73.4 °F - 60.8 °F 65% 30.13 in 10.0 mi NE 21.9 mph 31.1 mph N/A   Mostly Cloudy
11:21 PM 73.4 °F - 60.8 °F 65% 30.13 in 10.0 mi NE 19.6 mph 29.9 mph N/A   Scattered Clouds
11:54 PM 72.0 °F - 63.0 °F 73% 30.14 in 10.0 mi NE 16.1 mph 26.5 mph N/A   Mostly Cloudy